Location: Oshawa
(43.9000°N, 78.8670°W)
Time: 19:06:51
(UTC-05:00)

Iridium 98 - Visible Passes

Search period start: 22 December 2014 00:00
Search period end: 01 January 2015 00:00
Orbit: 776 x 779 km, 86.4° (Epoch: 22 December)

Date Brightness Start Highest point End Pass type
(mag) Time Alt. Az. Time Alt. Az. Time Alt. Az.
26 Dec 7.7 07:15:07 10° NNE 07:19:25 25° ENE 07:23:41 10° SE visible
27 Dec 8.2 06:42:42 10° NE 06:45:31 15° ENE 06:48:19 10° ESE visible
29 Dec 7.2 07:14:50 10° NNE 07:19:36 35° E 07:24:21 10° SE visible
30 Dec 8.1 06:41:57 10° NNE 06:45:48 20° ENE 06:49:36 10° ESE visible
31 Dec 8.5 06:10:12 10° NE 06:11:50 11° ENE 06:13:27 10° E visible
